STARLINK-30861, 58230

Orbit data source: Space-Track

STARLINK-30861, 58230 is a payload satellite owned by SpaceX/Seattle (US) in LEO that was launched on Wed, 08 Nov 2023 UTC via an FALCON 9 launch vehicle from the Air Force Eastern Test Range (AFETR). Payload-class satellites include a variety of spacecraft equipped with specific instruments for various scientific and technological missions. These include communications satellites like Starlink; space stations such as the ISS; scientific satellites like the Hubble; Earth observation satellites from companies like Planet Labs, Umbra, and HawkEye 360; GPS; miniature CubeSats for education and research; and military/defense satellites.

Loading next visibility...
Identifier
58230, 2023-171A
Orbit
LEO
Country
Flag of USUS
Related business
Manufacturer
SpaceX/Seattle
Mission
Operational Commercial Communications
Bus & Motor
STARLINK V2M, Unknown motor
Mass
730 kg wet, ~700 kg dry
Launch date (UTC)
2023-11-08 (3 years ago)
Launch vehicle
FALCON 9
Launch site
Air Force Eastern Test Range (AFETR)
Object type
Payload
Rocket body
Debris
Shape & HBR
Box + 2 Pan, 17.7 m
Radar Cross Section
33.884 m², Large (>1 m²)

Expand to show TLE details & history
Last TLE update: 2 days ago

TLE from 2 days ago
0 STARLINK-30861
1 58230U 23171A   26171.06161441  .00040505  00000-0  13360-2 0  9991
2 58230  42.9917  67.6716 0007890 204.1330 155.9154 15.30738875145380
Epoch: 2026-06-20T01:28Z
TLE epoch observation values (Epoch: 2026-06-20T01:28:43.485Z)
Latitude
0.00001°
Longitude
137.20878°
Altitude
478.316 km
Speed
7.626 km/s
True Right ascension
04h 30m 41s
True Declination
0° 00' 00"
Sunlit
Object was in daylight at epoch
Visualization orbit readout
Latitude
Unknown
Longitude
Unknown
Altitude
Unknown
Speed
Unknown
Apparent Right ascension
Unknown
Apparent Declination
Unknown
Sunlit
N/A
Visualization observer readout
Local Sidereal Time
00:31:11
Azimuth
Unknown
Elevation
Unknown
Doppler factor
Unknown
Orbital elements
Apogee altitude
480.963 km
Perigee altitude
470.148 km
Semi-major axis
6,853.693 km
Eccentricity
0.00079
Inclination
42.9917°
RAAN
67.6716°
Arg. of periapsis
204.133°
True anomaly
155.95226°
Mean anomaly
155.9154°
Eccentric anomaly
155.93383°
Mean motion
3.82522 °/min
Orbital period
94.11 mins
BSTAR
0.001336
Loading maneuver chart data...
Computing Atmospheric mass density...
Loading historical data...
Loading historical data...
Loading historical data...
Loading historical data...
Loading historical data...
Loading historical data...
Loading historical data...

Documentation

Showing up to 5 results
|